QPF
0.00 0.00 0.00 0.00 0.01 0.01 0.02 0.02 0.01 0.01 0.02 0.02 0.01 0.00 0.00 0.00 0.00 0.01 0.03 0.09 0.25 0.11 0.01 0.00 0.00 0.00 0.00 0.00 0.00 0.00 0.06 0.01 0.00 0.01 0.00 0.00 0.00 0.00 0.00 0.00 0.00 0.00 0.00 0.00 0.00 0.00 0.00 0.00 0.00 0.00 0.00 0.00 0.00 0.00
0.00 0.00 0.00 0.00 0.00 0.00 0.01 0.01 0.00 0.00 0.00 0.00 0.00 0.00 0.00 0.00 0.00 0.01 0.02 0.04 0.21 0.30 0.07 0.02 0.00 0.00 0.00 0.00 0.00 0.00 0.01 0.00 0.00 0.00 0.00 0.00 0.00 0.00 0.00 0.00 0.00 0.00 0.00 0.00 0.00 0.00 0.00 0.00 0.00 0.00 0.00 0.00 0.00 0.00
0.00 0.00 0.00 0.00 0.00 0.00 0.01 0.00 0.00 0.00 0.00 0.00 0.01 0.00 0.00 0.00 0.00 0.01 0.02 0.06 0.53 0.57 0.23 0.06 0.01 0.00 0.00 0.00 0.00 0.01 0.00 0.00 0.00 0.00 0.00 0.00 0.00 0.00 0.00 0.00 0.00 0.00 0.00 0.00 0.00 0.00 0.00 0.00 0.00 0.00 0.00 0.00 0.00 0.00
0.00 0.00 0.00 0.00 0.00 0.00 0.00 0.00 0.00 0.00 0.01 0.02 0.02 0.01 0.01 0.01 0.01 0.02 0.06 0.41 1.22 0.82 0.59 0.17 0.01 0.00 0.00 0.00 0.00 0.00 0.00 0.00 0.00 0.00 0.00 0.00 0.00 0.00 0.00 0.00 0.00 0.00 0.00 0.00 0.00 0.00 0.00 0.00 0.00 0.00 0.00 0.00 0.00 0.00
0.02 0.02 0.02 0.01 0.01 0.02 0.02 0.01 0.00 0.01 0.06 0.06 0.03 0.01 0.01 0.01 0.03 0.08 0.13 0.58 0.86 0.61 0.50 0.14 0.01 0.00 0.01 0.01 0.00 0.00 0.00 0.00 0.00 0.00 0.00 0.00 0.00 0.00 0.00 0.00 0.00 0.00 0.00 0.00 0.00 0.00 0.00 0.00 0.00 0.00 0.00 0.00 0.00 0.00
0.07 0.05 0.04 0.04 0.04 0.05 0.06 0.04 0.02 0.05 0.09 0.06 0.03 0.01 0.01 0.03 0.17 0.24 0.46 0.37 0.51 0.30 0.18 0.04 0.01 0.00 0.00 0.00 0.00 0.00 0.00 0.00 0.00 0.00 0.00 0.00 0.00 0.00 0.00 0.00 0.00 0.00 0.00 0.00 0.00 0.00 0.00 0.00 0.00 0.00 0.00 0.00 0.00 0.00
0.18 0.10 0.05 0.04 0.05 0.06 0.04 0.03 0.03 0.06 0.08 0.05 0.02 0.00 0.02 0.05 0.30 0.33 0.52 0.22 0.17 0.13 0.05 0.01 0.01 0.01 0.00 0.00 0.00 0.00 0.00 0.00 0.00 0.00 0.00 0.00 0.00 0.00 0.00 0.00 0.00 0.00 0.00 0.00 0.00 0.00 0.00 0.00 0.00 0.00 0.00 0.00 0.00 0.00
0.29 0.16 0.08 0.04 0.03 0.03 0.02 0.03 0.05 0.07 0.05 0.03 0.02 0.01 0.04 0.16 0.53 0.21 0.17 0.04 0.03 0.03 0.01 0.01 0.00 0.00 0.01 0.01 0.00 0.01 0.01 0.00 0.00 0.00 0.00 0.00 0.00 0.00 0.00 0.00 0.00 0.00 0.00 0.00 0.00 0.00 0.00 0.00 0.00 0.00 0.00 0.00 0.00 0.00
0.11 0.08 0.06 0.04 0.03 0.03 0.02 0.02 0.04 0.04 0.03 0.02 0.02 0.05 0.18 0.42 0.57 0.10 0.03 0.00 0.01 0.00 0.00 0.00 0.00 0.00 0.00 0.00 0.00 0.00 0.00 0.00 0.00 0.00 0.00 0.00 0.00 0.00 0.00 0.00 0.00 0.00 0.00 0.00 0.00 0.00 0.00 0.00 0.00 0.00 0.00 0.00 0.00 0.00
0.05 0.03 0.03 0.04 0.05 0.06 0.05 0.04 0.02 0.01 0.01 0.02 0.06 0.14 0.27 0.27 0.12 0.00 0.01 0.00 0.00 0.00 0.00 0.00 0.00 0.00 0.00 0.00 0.00 0.00 0.00 0.00 0.00 0.00 0.00 0.00 0.00 0.00 0.00 0.00 0.00 0.00 0.00 0.00 0.00 0.00 0.00 0.00 0.00 0.00 0.00 0.00 0.00 0.00
0.04 0.02 0.03 0.03 0.03 0.04 0.05 0.05 0.02 0.01 0.01 0.05 0.08 0.12 0.20 0.16 0.01 0.00 0.00 0.00 0.00 0.01 0.00 0.00 0.00 0.00 0.00 0.01 0.03 0.03 0.03 0.02 0.01 0.01 0.00 0.00 0.00 0.01 0.00 0.00 0.00 0.00 0.00 0.00 0.00 0.00 0.00 0.00 0.00 0.00 0.00 0.00 0.00 0.00
0.06 0.04 0.03 0.03 0.03 0.02 0.01 0.01 0.01 0.02 0.04 0.04 0.02 0.06 0.20 0.07 0.03 0.00 0.00 0.00 0.00 0.00 0.00 0.00 0.00 0.00 0.00 0.01 0.01 0.01 0.01 0.00 0.00 0.00 0.00 0.00 0.00 0.00 0.00 0.00 0.00 0.00 0.00 0.00 0.00 0.00 0.00 0.00 0.00 0.00 0.00 0.00 0.00 0.00
0.05 0.03 0.04 0.05 0.03 0.01 0.01 0.01 0.01 0.01 0.00 0.00 0.00 0.03 0.11 0.02 0.07 0.01 0.00 0.00 0.00 0.00 0.00 0.00 0.00 0.00 0.00 0.00 0.00 0.00 0.01 0.00 0.00 0.00 0.00 0.00 0.00 0.00 0.00 0.00 0.00 0.00 0.00 0.00 0.00 0.00 0.00 0.00 0.00 0.00 0.00 0.00 0.00 0.00
0.00 0.01 0.02 0.03 0.02 0.02 0.01 0.00 0.00 0.00 0.00 0.00 0.00 0.00 0.03 0.03 0.01 0.00 0.00 0.00 0.00 0.00 0.00 0.00 0.00 0.00 0.00 0.00 0.00 0.00 0.00 0.00 0.00 0.00 0.00 0.00 0.00 0.00 0.00 0.00 0.00 0.00 0.00 0.00 0.00 0.00 0.00 0.00 0.00 0.00 0.00 0.00 0.00 0.00
0.00 0.00 0.00 0.00 0.00 0.00 0.00 0.00 0.00 0.00 0.00 0.00 0.01 0.02 0.02 0.01 0.00 0.00 0.00 0.00 0.00 0.00 0.00 0.00 0.00 0.00 0.00 0.00 0.00 0.00 0.00 0.00 0.00 0.00 0.00 0.00 0.00 0.00 0.00 0.00 0.00 0.00 0.00 0.00 0.00 0.00 0.00 0.00 0.00 0.00 0.00 0.00 0.00 0.00
0.00 0.00 0.00 0.00 0.00 0.00 0.00 0.00 0.00 0.00 0.02 0.03 0.05 0.05 0.03 0.01 0.01 0.00 0.00 0.00 0.00 0.00 0.00 0.00 0.00 0.00 0.00 0.00 0.00 0.00 0.00 0.01 0.00 0.00 0.00 0.00 0.00 0.00 0.00 0.00 0.00 0.00 0.00 0.00 0.00 0.00 0.00 0.00 0.00 0.00 0.00 0.00 0.00 0.00
0.00 0.00 0.00 0.00 0.00 0.00 0.00 0.00 0.04 0.10 0.11 0.09 0.11 0.09 0.08 0.06 0.06 0.05 0.03 0.03 0.03 0.02 0.01 0.00 0.00 0.01 0.01 0.01 0.01 0.01 0.01 0.01 0.00 0.01 0.01 0.02 0.02 0.01 0.00 0.00 0.00 0.00 0.00 0.00 0.00 0.00 0.00 0.00 0.00 0.00 0.00 0.00 0.00 0.00
0.00 0.00 0.00 0.00 0.00 0.00 0.00 0.00 0.02 0.04 0.07 0.10 0.10 0.12 0.07 0.08 0.08 0.07 0.06 0.03 0.02 0.03 0.02 0.03 0.02 0.02 0.04 0.04 0.05 0.05 0.05 0.05 0.03 0.03 0.03 0.03 0.03 0.00 0.00 0.00 0.00 0.00 0.00 0.00 0.00 0.00 0.00 0.00 0.00 0.00 0.00 0.00 0.00 0.00
0.00 0.00 0.00 0.00 0.00 0.00 0.00 0.00 0.00 0.01 0.07 0.08 0.09 0.07 0.05 0.04 0.03 0.04 0.02 0.01 0.01 0.01 0.01 0.03 0.04 0.05 0.07 0.08 0.10 0.10 0.07 0.03 0.01 0.01 0.01 0.02 0.02 0.01 0.00 0.00 0.00 0.00 0.00 0.00 0.00 0.00 0.00 0.00 0.00 0.00 0.00 0.00 0.00 0.00
0.00 0.00 0.00 0.00 0.00 0.00 0.00 0.00 0.00 0.01 0.03 0.03 0.03 0.01 0.01 0.01 0.00 0.00 0.00 0.00 0.00 0.00 0.01 0.03 0.07 0.08 0.09 0.09 0.09 0.07 0.04 0.00 0.00 0.01 0.02 0.04 0.02 0.01 0.02 0.02 0.01 0.00 0.00 0.00 0.00 0.00 0.00 0.00 0.00 0.00 0.00 0.00 0.00 0.00
0.00 0.00 0.00 0.00 0.00 0.00 0.00 0.00 0.00 0.00 0.00 0.00 0.00 0.00 0.00 0.00 0.00 0.00 0.00 0.00 0.00 0.01 0.02 0.04 0.05 0.04 0.03 0.03 0.04 0.05 0.04 0.04 0.04 0.01 0.00 0.02 0.02 0.02 0.03 0.02 0.01 0.02 0.01 0.02 0.02 0.01 0.00 0.00 0.00 0.00 0.00 0.00 0.00 0.00
0.00 0.00 0.00 0.00 0.00 0.00 0.00 0.00 0.00 0.00 0.00 0.00 0.00 0.00 0.00 0.00 0.00 0.00 0.00 0.00 0.01 0.04 0.04 0.02 0.01 0.01 0.00 0.01 0.01 0.02 0.04 0.05 0.07 0.08 0.08 0.04 0.03 0.03 0.05 0.06 0.03 0.03 0.03 0.03 0.03 0.01 0.00 0.00 0.00 0.00 0.00 0.00 0.00 0.00
0.00 0.00 0.00 0.00 0.00 0.00 0.00 0.00 0.00 0.00 0.00 0.00 0.00 0.00 0.00 0.00 0.00 0.00 0.00 0.01 0.02 0.02 0.02 0.02 0.01 0.00 0.00 0.00 0.00 0.00 0.00 0.01 0.03 0.06 0.08 0.07 0.06 0.06 0.06 0.06 0.05 0.05 0.04 0.02 0.01 0.00 0.00 0.00 0.00 0.00 0.00 0.00 0.00 0.00
0.00 0.00 0.00 0.00 0.00 0.00 0.00 0.00 0.00 0.00 0.00 0.00 0.00 0.00 0.00 0.00 0.00 0.00 0.01 0.02 0.02 0.00 0.00 0.01 0.03 0.02 0.00 0.00 0.00 0.00 0.01 0.01 0.01 0.03 0.04 0.03 0.03 0.04 0.03 0.03 0.02 0.02 0.01 0.00 0.00 0.00 0.00 0.00 0.00 0.00 0.00 0.00 0.00 0.00
0.00 0.00 0.00 0.00 0.00 0.00 0.00 0.00 0.00 0.00 0.00 0.00 0.00 0.00 0.00 0.00 0.00 0.00 0.01 0.03 0.01 0.00 0.00 0.01 0.00 0.00 0.01 0.01 0.00 0.00 0.00 0.00 0.00 0.01 0.02 0.02 0.02 0.02 0.02 0.01 0.00 0.00 0.00 0.00 0.00 0.00 0.00 0.00 0.00 0.00 0.00 0.00 0.00 0.00
0.00 0.00 0.00 0.00 0.00 0.00 0.00 0.00 0.00 0.00 0.00 0.00 0.00 0.00 0.00 0.01 0.00 0.01 0.01 0.03 0.01 0.00 0.01 0.01 0.02 0.00 0.00 0.00 0.00 0.00 0.00 0.01 0.00 0.00 0.00 0.00 0.00 0.01 0.00 0.00 0.00 0.00 0.00 0.00 0.00 0.00 0.00 0.00 0.00 0.00 0.00 0.00 0.00 0.00
0.00 0.00 0.00 0.00 0.00 0.00 0.00 0.00 0.00 0.00 0.00 0.00 0.00 0.00 0.00 0.02 0.01 0.02 0.01 0.01 0.01 0.01 0.00 0.00 0.00 0.00 0.01 0.01 0.01 0.00 0.00 0.00 0.00 0.00 0.00 0.00 0.00 0.00 0.00 0.00 0.00 0.00 0.00 0.00 0.00 0.00 0.00 0.00 0.00 0.00 0.00 0.00 0.00 0.00
0.00 0.00 0.00 0.00 0.00 0.00 0.00 0.00 0.00 0.01 0.01 0.00 0.01 0.01 0.00 0.01 0.02 0.02 0.02 0.02 0.01 0.00 0.00 0.00 0.00 0.00 0.00 0.00 0.00 0.00 0.00 0.00 0.00 0.00 0.00 0.00 0.00 0.00 0.00 0.00 0.00 0.00 0.00 0.00 0.00 0.00 0.00 0.00 0.00 0.00 0.00 0.00 0.00 0.00
0.00 0.00 0.00 0.00 0.00 0.00 0.00 0.01 0.01 0.01 0.00 0.00 0.01 0.01 0.01 0.01 0.02 0.03 0.02 0.02 0.02 0.02 0.01 0.01 0.02 0.02 0.01 0.00 0.00 0.00 0.00 0.00 0.00 0.00 0.00 0.00 0.01 0.00 0.00 0.00 0.00 0.00 0.00 0.00 0.00 0.00 0.00 0.00 0.00 0.00 0.00 0.00 0.00 0.01
0.00 0.00 0.00 0.00 0.00 0.00 0.01 0.01 0.01 0.00 0.00 0.00 0.00 0.00 0.00 0.01 0.02 0.01 0.01 0.01 0.01 0.01 0.00 0.01 0.01 0.00 0.01 0.01 0.00 0.00 0.00 0.00 0.00 0.00 0.00 0.00 0.00 0.00 0.00 0.00 0.00 0.00 0.00 0.00 0.00 0.00 0.00 0.00 0.00 0.00 0.00 0.00 0.00 0.01
0.00 0.00 0.00 0.00 0.00 0.00 0.00 0.00 0.01 0.00 0.00 0.00 0.00 0.01 0.00 0.01 0.01 0.00 0.00 0.02 0.00 0.02 0.02 0.01 0.00 0.00 0.00 0.00 0.00 0.00 0.01 0.00 0.00 0.00 0.00 0.00 0.00 0.00 0.00 0.00 0.00 0.00 0.00 0.00 0.00 0.00 0.00 0.00 0.00 0.00 0.00 0.00 0.00 0.00
0.00 0.00 0.00 0.00 0.01 0.00 0.00 0.00 0.01 0.03 0.02 0.01 0.00 0.00 0.01 0.01 0.01 0.00 0.00 0.01 0.01 0.00 0.00 0.00 0.00 0.00 0.00 0.00 0.00 0.00 0.00 0.00 0.00 0.00 0.00 0.00 0.00 0.00 0.00 0.00 0.00 0.00 0.00 0.00 0.00 0.00 0.00 0.00 0.00 0.00 0.00 0.00 0.00 0.00
0.00 0.00 0.00 0.00 0.00 0.01 0.00 0.00 0.00 0.01 0.00 0.00 0.00 0.01 0.01 0.01 0.01 0.01 0.01 0.00 0.00 0.00 0.00 0.00 0.00 0.00 0.00 0.00 0.00 0.00 0.00 0.00 0.00 0.00 0.00 0.00 0.00 0.00 0.00 0.00 0.00 0.00 0.00 0.00 0.00 0.00 0.00 0.00 0.00 0.00 0.00 0.00 0.00 0.00
MSLP
990.05 991.05 991.97 993.02 994.07 995.10 995.86 996.54 997.04 997.68 998.53 999.33 1000.27 1001.36 1002.33 1003.33 1004.30 1005.30 1005.61 1006.47 1006.72 1004.59 1001.86 1001.08 1000.56 1000.31 1000.88 1001.88 1003.22 1004.89 1006.75 1006.73 1006.85 1008.24 1009.82 1010.68 1011.81 1011.05 1010.94 1011.18 1011.75 1012.77 1014.07 1015.06 1015.25 1014.56 1012.62 1010.06 1009.89 1010.31 1010.91 1011.18 1011.46 1011.80
990.75 991.68 992.60 993.49 994.39 995.18 995.90 996.53 997.18 997.93 998.67 999.42 1000.39 1001.32 1002.27 1003.17 1003.81 1004.74 1005.39 1005.94 1006.37 1006.27 1003.83 1002.33 1000.30 999.64 998.90 999.97 1001.57 1003.68 1004.46 1005.37 1005.41 1006.51 1008.71 1010.41 1011.77 1011.80 1011.57 1011.63 1010.76 1011.33 1011.43 1012.37 1012.53 1011.95 1010.73 1009.90 1009.99 1010.32 1010.74 1011.73 1012.24 1012.52
991.41 992.11 992.94 993.74 994.51 995.25 996.00 996.71 997.39 998.01 998.60 999.40 1000.38 1001.33 1002.18 1002.94 1003.71 1004.14 1004.67 1005.92 1006.87 1006.06 1004.20 1002.67 1000.78 999.94 999.01 999.05 999.63 1002.03 1002.74 1003.65 1003.86 1004.33 1007.83 1010.36 1011.51 1011.59 1011.73 1011.11 1010.35 1009.72 1009.74 1010.61 1011.08 1010.73 1010.57 1010.72 1011.00 1011.13 1011.64 1012.49 1012.98 1013.57
991.71 992.30 992.99 993.75 994.49 995.20 995.92 996.73 997.45 998.15 998.82 999.61 1000.52 1001.22 1002.18 1002.78 1003.22 1004.32 1004.96 1005.53 1005.81 1005.70 1004.81 1002.61 1000.95 1000.25 999.36 999.00 999.89 1000.82 1001.52 1002.63 1003.30 1004.87 1007.82 1010.02 1010.65 1010.08 1010.92 1010.31 1009.95 1009.35 1009.44 1010.18 1010.83 1011.24 1011.45 1012.17 1012.24 1012.57 1013.09 1013.48 1014.17 1014.85
991.97 992.54 993.23 993.89 994.54 995.19 995.87 996.62 997.46 998.25 998.97 999.74 1000.36 1001.42 1002.17 1002.65 1003.80 1004.58 1005.17 1005.20 1005.10 1005.03 1004.19 999.89 1000.10 1000.78 1000.24 1000.44 1000.68 1000.99 1001.73 1002.73 1004.31 1006.65 1008.37 1009.40 1009.21 1009.69 1010.36 1010.29 1010.08 1009.24 1009.46 1010.19 1011.25 1011.28 1011.60 1013.33 1013.66 1013.88 1014.32 1015.14 1015.61 1016.05
992.21 992.71 993.23 993.85 994.20 995.04 995.75 996.48 997.26 998.11 998.83 999.43 1000.19 1001.04 1001.92 1003.00 1003.98 1004.54 1005.19 1004.19 1004.01 1004.52 1004.28 1002.59 1002.29 1001.49 1001.60 1001.78 1001.46 1002.20 1002.17 1003.25 1004.59 1006.30 1008.06 1008.49 1008.42 1008.89 1010.73 1011.10 1010.53 1009.91 1009.72 1009.68 1010.95 1011.47 1012.41 1013.97 1014.75 1015.25 1015.70 1016.45 1016.95 1017.48
992.09 992.36 992.78 993.31 994.06 995.04 995.51 996.32 997.28 998.01 998.33 998.69 999.47 1000.80 1001.50 1002.03 1002.41 1003.13 1003.52 1001.98 1003.23 1004.28 1003.05 1002.99 1003.12 1002.92 1002.60 1002.67 1003.58 1003.74 1003.49 1004.69 1005.50 1007.13 1008.17 1008.78 1009.02 1009.41 1010.69 1010.99 1010.79 1010.47 1010.61 1010.89 1011.33 1012.07 1013.70 1014.46 1015.87 1016.49 1016.96 1017.74 1018.35 1019.01
990.80 991.48 992.22 992.61 993.15 993.89 994.96 995.86 997.06 997.59 998.19 998.78 999.65 1000.56 1001.64 1001.98 1001.98 1003.11 1001.60 1001.37 1001.55 1000.83 1001.36 1004.19 1005.12 1004.96 1004.15 1004.83 1005.51 1005.64 1005.84 1006.36 1007.44 1008.48 1008.65 1009.36 1009.88 1010.16 1011.41 1011.22 1010.99 1011.06 1011.36 1012.04 1012.58 1012.69 1014.25 1015.47 1016.40 1017.25 1017.95 1018.62 1019.24 1019.95
990.34 990.98 991.62 992.07 992.90 994.03 994.56 995.35 996.31 997.26 998.05 998.87 999.68 1000.73 1001.22 1001.91 1003.03 1001.22 1001.21 1000.67 1000.29 1000.87 1003.58 1005.11 1006.11 1006.46 1005.97 1006.78 1007.06 1007.23 1007.44 1008.79 1008.95 1009.29 1009.32 1009.64 1011.00 1011.81 1011.80 1011.69 1011.78 1011.87 1011.97 1013.19 1013.86 1014.63 1015.51 1016.25 1017.12 1017.99 1018.68 1019.28 1019.90 1020.73
991.40 991.64 992.18 992.82 993.49 994.05 994.76 995.65 996.37 997.04 997.60 997.97 999.29 999.89 1000.42 1001.07 1000.74 1000.60 1000.87 1001.19 1001.77 1003.22 1004.92 1006.17 1006.39 1007.04 1007.04 1007.92 1008.87 1009.28 1009.25 1009.60 1009.96 1010.16 1009.88 1010.70 1012.17 1012.71 1012.66 1012.57 1012.60 1012.73 1012.98 1013.68 1014.72 1015.92 1016.55 1017.24 1017.88 1018.50 1019.36 1019.99 1020.68 1021.40
993.04 992.91 993.06 993.61 994.25 994.92 995.66 996.55 997.25 997.78 998.44 998.26 998.71 999.98 1000.88 1000.66 1000.82 1001.81 1002.99 1004.18 1004.92 1006.03 1006.75 1007.28 1007.13 1007.28 1007.49 1008.33 1009.17 1009.58 1009.84 1009.90 1010.28 1010.53 1010.74 1011.74 1012.72 1013.21 1013.39 1013.53 1013.59 1013.54 1013.97 1014.35 1015.00 1016.01 1016.82 1017.54 1018.38 1019.27 1020.21 1021.00 1021.77 1022.48
994.60 994.46 994.66 994.92 995.34 995.93 996.64 997.24 997.70 997.52 997.63 997.92 999.30 1001.06 1001.89 1002.72 1003.57 1003.86 1005.05 1005.28 1005.71 1007.10 1007.74 1007.74 1007.50 1007.59 1007.95 1007.85 1008.94 1009.68 1010.16 1010.18 1010.54 1010.60 1011.46 1012.49 1013.23 1013.50 1013.84 1014.13 1014.26 1014.50 1014.82 1015.49 1016.06 1016.77 1017.57 1018.37 1019.19 1020.08 1020.98 1021.87 1022.72 1023.46
996.45 996.35 996.26 996.42 996.36 996.90 997.59 998.05 998.01 998.13 998.33 998.79 1000.16 1003.27 1004.18 1005.28 1005.76 1006.41 1007.30 1007.53 1008.02 1008.31 1008.13 1007.91 1008.31 1008.62 1008.68 1008.68 1009.38 1009.75 1010.34 1010.88 1010.72 1011.38 1012.16 1012.98 1013.58 1014.03 1014.32 1014.58 1014.96 1015.33 1015.85 1016.59 1017.45 1018.24 1018.98 1019.81 1020.47 1021.11 1022.02 1022.80 1023.40 1024.04
997.47 997.47 997.72 998.06 998.33 998.25 998.24 998.20 998.47 998.47 999.01 1001.59 1003.66 1005.55 1006.55 1007.29 1008.11 1008.46 1008.71 1009.12 1009.58 1009.52 1009.20 1008.98 1009.29 1009.53 1009.60 1009.78 1009.97 1010.34 1011.18 1011.13 1011.50 1012.20 1012.77 1013.54 1014.00 1014.47 1014.78 1015.17 1015.64 1016.29 1017.19 1017.86 1018.65 1019.47 1020.24 1020.91 1021.74 1022.38 1022.98 1023.47 1024.01 1024.68
998.59 998.44 998.16 999.06 999.31 999.09 998.95 999.10 999.33 999.66 1002.19 1004.46 1005.83 1007.91 1008.99 1009.54 1009.60 1009.64 1009.81 1010.12 1010.32 1009.90 1009.65 1009.55 1009.75 1009.81 1010.08 1010.34 1010.61 1011.19 1011.68 1011.76 1012.00 1012.77 1013.44 1013.96 1014.49 1014.84 1015.41 1016.03 1016.57 1017.29 1018.13 1018.86 1019.61 1020.37 1021.17 1021.86 1022.49 1023.16 1023.73 1024.16 1024.62 1025.13
999.06 998.77 1000.27 1000.21 999.73 999.32 999.17 999.37 1000.51 1002.47 1005.79 1007.63 1009.03 1009.80 1010.06 1010.10 1010.54 1010.72 1010.65 1010.69 1010.52 1010.21 1009.99 1009.92 1010.20 1010.65 1011.03 1011.09 1011.30 1011.69 1012.20 1012.77 1013.43 1013.77 1014.11 1014.56 1015.11 1015.62 1016.23 1016.82 1017.36 1018.02 1018.82 1019.74 1020.42 1020.99 1021.60 1022.26 1022.83 1023.47 1024.08 1024.62 1025.07 1025.41
1000.20 1001.78 1001.67 1000.81 1000.32 999.96 999.91 1001.57 1004.05 1007.05 1009.14 1010.29 1011.36 1011.45 1011.38 1011.59 1011.72 1011.68 1011.53 1011.28 1010.96 1010.92 1010.96 1010.85 1011.15 1011.64 1011.72 1011.98 1012.72 1013.17 1013.90 1014.35 1014.60 1014.80 1015.07 1015.34 1015.77 1016.43 1017.00 1017.65 1018.12 1018.77 1019.58 1020.24 1020.91 1021.49 1022.01 1022.51 1023.19 1023.82 1024.36 1024.80 1025.31 1025.70
1002.68 1002.66 1001.86 1001.47 1001.29 1001.72 1003.13 1004.95 1007.64 1009.93 1011.50 1012.32 1012.48 1012.66 1012.58 1012.59 1012.48 1012.30 1012.04 1011.55 1011.31 1011.41 1011.66 1011.96 1012.14 1012.72 1013.80 1014.38 1015.12 1015.25 1015.48 1015.55 1015.61 1015.74 1015.96 1016.23 1016.64 1017.24 1017.70 1018.24 1018.86 1019.39 1020.02 1020.68 1021.33 1021.93 1022.45 1023.12 1023.72 1024.42 1024.84 1025.22 1025.67 1026.12
1003.66 1003.16 1002.49 1002.08 1002.04 1003.35 1005.69 1007.61 1008.62 1011.22 1012.80 1013.09 1013.33 1013.30 1013.33 1013.37 1013.17 1012.88 1012.51 1012.01 1011.88 1011.91 1012.52 1013.84 1014.95 1015.97 1016.82 1017.23 1017.18 1016.70 1016.56 1016.59 1016.68 1016.81 1016.96 1017.19 1017.57 1017.96 1018.45 1019.05 1019.70 1020.28 1020.81 1021.35 1022.03 1022.76 1023.42 1023.96 1024.62 1025.23 1025.71 1026.04 1026.50 1026.83
1003.64 1003.59 1003.38 1003.13 1002.75 1005.01 1007.82 1009.54 1009.97 1011.85 1013.27 1014.04 1014.01 1014.03 1013.93 1014.05 1013.97 1013.73 1013.57 1013.38 1013.19 1013.65 1015.42 1017.02 1018.18 1018.87 1019.02 1019.15 1018.82 1018.17 1017.73 1017.66 1017.65 1017.82 1018.08 1018.37 1018.69 1019.01 1019.47 1019.93 1020.65 1021.21 1021.76 1022.42 1023.08 1023.56 1024.30 1025.06 1025.68 1026.18 1026.52 1026.90 1027.33 1027.63
1004.26 1004.66 1004.35 1004.12 1005.36 1007.37 1010.09 1011.26 1011.89 1012.68 1013.51 1014.12 1014.15 1014.38 1014.88 1014.70 1014.79 1014.89 1015.16 1015.43 1015.69 1017.52 1018.87 1019.95 1020.06 1020.46 1020.54 1020.36 1019.96 1019.41 1019.18 1018.94 1018.96 1018.79 1018.82 1019.38 1019.84 1020.21 1020.76 1021.26 1021.66 1022.16 1022.89 1023.72 1024.35 1025.24 1025.83 1026.43 1026.96 1027.20 1027.44 1027.82 1028.04 1028.13
1005.92 1005.54 1006.10 1006.81 1008.65 1010.33 1012.03 1012.61 1012.84 1013.08 1013.99 1014.56 1014.64 1014.89 1015.56 1015.84 1016.02 1016.25 1017.05 1017.91 1019.81 1020.70 1020.94 1021.28 1021.42 1021.50 1021.57 1021.56 1021.50 1021.15 1020.86 1020.60 1020.50 1020.27 1020.31 1020.72 1021.36 1021.94 1022.35 1022.95 1023.40 1024.11 1024.67 1025.25 1025.73 1026.45 1027.12 1027.60 1027.93 1028.14 1028.35 1028.56 1028.26 1028.27
1006.37 1006.81 1008.24 1009.68 1011.31 1012.96 1014.62 1013.73 1014.14 1014.41 1015.10 1015.55 1015.54 1016.03 1016.71 1016.93 1016.99 1017.11 1019.28 1020.84 1022.08 1022.65 1022.54 1022.28 1022.44 1022.66 1022.87 1023.08 1022.89 1022.67 1022.54 1022.26 1022.24 1022.45 1022.71 1023.07 1023.54 1024.04 1024.42 1024.85 1025.17 1025.65 1026.19 1026.69 1027.02 1027.39 1027.82 1028.26 1028.62 1028.83 1029.01 1029.09 1029.08 1028.97
1007.83 1009.91 1011.61 1012.73 1013.78 1015.16 1015.26 1015.26 1015.03 1015.68 1016.11 1016.29 1016.70 1017.32 1017.75 1017.93 1018.06 1019.44 1021.31 1022.89 1023.97 1023.91 1023.77 1023.55 1023.39 1023.53 1023.91 1024.15 1024.28 1024.38 1024.22 1024.13 1024.18 1024.27 1024.52 1024.72 1025.09 1025.72 1026.15 1026.67 1027.01 1027.29 1027.49 1027.75 1028.13 1028.45 1028.75 1029.05 1029.27 1029.46 1029.61 1029.64 1029.55 1029.49
1010.77 1014.26 1014.40 1015.25 1015.39 1015.81 1016.56 1016.59 1016.73 1016.79 1017.25 1017.37 1017.66 1018.19 1018.55 1018.57 1019.46 1021.19 1022.72 1024.23 1025.18 1025.37 1025.38 1024.99 1024.84 1025.03 1025.15 1025.53 1025.75 1025.89 1025.88 1025.62 1025.68 1025.92 1026.31 1026.17 1026.50 1026.93 1027.45 1027.93 1028.37 1028.72 1028.86 1029.07 1029.43 1029.63 1029.75 1029.84 1029.92 1030.06 1030.13 1030.03 1029.98 1029.88
1014.45 1016.45 1016.68 1016.92 1017.22 1017.08 1017.30 1017.68 1017.81 1017.91 1018.04 1018.49 1018.96 1019.19 1019.25 1019.78 1021.39 1023.30 1024.62 1025.76 1026.30 1026.58 1026.67 1026.45 1026.13 1026.32 1026.66 1026.93 1027.10 1027.23 1027.30 1026.82 1026.86 1027.16 1027.71 1027.79 1027.85 1027.96 1028.40 1028.94 1029.49 1030.06 1030.11 1030.12 1030.35 1030.54 1030.56 1030.55 1030.62 1030.66 1030.58 1030.36 1030.12 1029.94
1016.56 1017.47 1017.89 1017.63 1017.79 1017.80 1018.06 1018.21 1018.28 1018.68 1018.98 1019.76 1020.11 1020.22 1020.72 1021.77 1023.79 1025.29 1026.25 1026.73 1027.12 1027.58 1027.66 1027.64 1027.42 1027.44 1027.65 1027.93 1028.10 1028.25 1028.22 1028.09 1028.06 1028.31 1028.69 1028.91 1029.09 1029.40 1029.83 1030.32 1030.43 1030.78 1030.56 1030.52 1030.54 1030.82 1030.97 1030.91 1030.93 1030.94 1030.81 1030.60 1030.44 1030.27
1018.26 1018.65 1018.70 1018.83 1018.73 1018.73 1019.03 1019.40 1019.81 1020.45 1020.84 1021.12 1021.27 1022.41 1023.67 1024.91 1026.41 1027.13 1027.51 1027.69 1027.69 1027.91 1028.23 1028.36 1028.42 1028.54 1028.79 1029.04 1029.18 1029.27 1029.20 1029.06 1028.92 1029.07 1029.43 1029.89 1030.19 1030.38 1030.53 1030.73 1030.66 1030.41 1030.58 1030.66 1030.77 1030.41 1030.29 1030.34 1030.62 1030.71 1030.71 1030.56 1030.38 1029.64
1019.35 1019.45 1019.53 1019.93 1019.77 1020.18 1020.77 1020.93 1021.30 1022.05 1022.63 1022.60 1023.21 1024.77 1026.27 1027.64 1028.59 1028.45 1028.52 1028.54 1028.55 1028.75 1028.93 1029.13 1029.05 1029.31 1029.66 1029.89 1030.18 1030.45 1030.55 1030.49 1030.52 1030.80 1030.93 1031.28 1031.21 1031.45 1031.30 1031.26 1031.16 1030.99 1030.92 1031.06 1030.42 1030.03 1029.67 1029.51 1029.47 1029.74 1029.93 1029.96 1029.52 1029.31
1020.15 1019.95 1020.43 1020.89 1021.33 1021.81 1022.41 1022.41 1022.70 1023.33 1023.61 1024.01 1024.98 1026.52 1027.91 1029.09 1029.85 1029.80 1029.68 1029.58 1029.58 1029.83 1029.94 1030.13 1030.39 1030.52 1031.02 1031.13 1031.53 1031.84 1031.83 1031.80 1032.02 1032.25 1032.53 1032.77 1032.65 1032.30 1031.87 1031.56 1031.32 1031.20 1030.98 1031.14 1030.69 1030.37 1030.04 1029.86 1029.54 1029.43 1029.78 1029.70 1029.68 1029.73
1020.67 1020.63 1021.27 1021.90 1022.47 1022.86 1022.96 1023.09 1023.25 1023.69 1024.27 1025.12 1025.86 1027.03 1028.59 1029.90 1030.69 1030.91 1030.99 1030.70 1030.73 1030.81 1030.87 1031.35 1031.59 1031.80 1032.08 1032.29 1032.60 1032.60 1032.70 1032.58 1032.48 1032.62 1032.62 1032.58 1032.59 1032.55 1032.49 1032.16 1031.37 1031.09 1031.23 1031.17 1030.74 1030.48 1030.29 1030.34 1030.37 1030.05 1030.00 1029.94 1030.05 1030.24
1022.00 1022.30 1022.53 1022.92 1023.27 1023.36 1023.16 1023.36 1023.64 1024.09 1025.16 1026.10 1027.31 1027.96 1028.98 1029.67 1031.01 1031.91 1032.09 1031.78 1031.82 1032.04 1032.29 1032.36 1032.39 1032.60 1032.58 1032.73 1032.85 1032.85 1032.83 1032.73 1032.66 1032.60 1032.58 1032.33 1032.46 1032.52 1032.37 1032.10 1031.90 1031.31 1031.41 1031.44 1031.11 1030.77 1030.53 1030.67 1030.44 1030.18 1030.02 1030.13 1030.22 1030.41
1022.57 1022.83 1023.12 1023.57 1023.98 1024.01 1024.09 1024.28 1024.48 1025.38 1026.22 1027.25 1028.25 1028.67 1029.55 1030.51 1031.68 1032.42 1032.45 1032.60 1032.89 1033.18 1033.36 1033.31 1032.88 1032.50 1032.42 1032.94 1033.11 1033.02 1032.81 1032.89 1032.65 1032.20 1032.06 1031.86 1032.01 1032.13 1032.28 1032.12 1032.06 1032.11 1031.95 1031.56 1031.29 1031.05 1030.99 1030.90 1030.71 1030.42 1030.17 1030.26 1030.43 1030.72
Thickness
5361 5360 5360 5358 5356 5352 5355 5358 5361 5365 5369 5374 5378 5380 5396 5415 5432 5449 5471 5484 5503 5539 5568 5583 5597 5602 5606 5604 5592 5595 5584 5591 5601 5590 5584 5580 5568 5591 5593 5601 5584 5574 5560 5539 5548 5550 5565 5619 5619 5599 5597 5606 5604 5601
5358 5355 5354 5352 5350 5351 5354 5359 5362 5366 5369 5373 5377 5384 5400 5420 5439 5460 5473 5488 5501 5518 5552 5568 5595 5611 5627 5624 5610 5600 5606 5604 5614 5608 5596 5582 5579 5568 5588 5572 5607 5581 5589 5576 5579 5575 5602 5616 5609 5609 5606 5596 5591 5587
5354 5352 5351 5350 5349 5352 5355 5358 5361 5366 5371 5375 5378 5387 5409 5434 5448 5469 5484 5490 5501 5521 5543 5562 5582 5604 5620 5624 5629 5603 5613 5620 5626 5631 5605 5588 5575 5577 5563 5577 5599 5613 5615 5594 5593 5606 5606 5602 5598 5597 5593 5583 5579 5570
5352 5352 5352 5351 5351 5354 5357 5358 5361 5365 5370 5374 5379 5395 5418 5441 5466 5478 5488 5503 5513 5520 5530 5559 5582 5591 5609 5621 5623 5626 5627 5624 5627 5621 5590 5572 5573 5599 5570 5591 5591 5599 5605 5599 5592 5592 5587 5580 5580 5577 5571 5566 5557 5546
5364 5358 5352 5349 5349 5352 5354 5357 5358 5361 5366 5373 5388 5406 5432 5454 5465 5479 5492 5502 5512 5526 5540 5555 5575 5583 5596 5605 5615 5619 5620 5617 5610 5595 5565 5575 5592 5588 5583 5583 5586 5600 5596 5576 5562 5585 5581 5565 5560 5556 5549 5539 5535 5526
5382 5376 5369 5361 5360 5359 5358 5358 5360 5363 5371 5385 5405 5430 5444 5459 5469 5487 5498 5513 5518 5519 5531 5536 5559 5573 5584 5591 5602 5607 5610 5607 5604 5593 5575 5588 5597 5584 5556 5550 5584 5585 5587 5587 5574 5574 5567 5549 5539 5533 5525 5516 5510 5502
5407 5404 5400 5394 5388 5383 5383 5379 5379 5386 5402 5424 5442 5451 5465 5482 5498 5505 5516 5526 5518 5516 5541 5539 5545 5564 5573 5578 5574 5582 5594 5589 5591 5584 5570 5578 5583 5575 5547 5553 5573 5573 5572 5570 5567 5561 5545 5539 5518 5511 5505 5495 5487 5478
5442 5434 5430 5429 5426 5422 5418 5417 5418 5425 5438 5450 5460 5472 5483 5498 5510 5497 5520 5526 5534 5556 5556 5529 5525 5541 5560 5556 5548 5561 5569 5571 5564 5560 5562 5558 5560 5547 5543 5561 5563 5563 5560 5550 5541 5543 5526 5515 5505 5495 5486 5478 5470 5462
5470 5464 5458 5456 5453 5449 5452 5454 5456 5458 5463 5470 5478 5480 5492 5501 5498 5516 5520 5532 5546 5552 5524 5512 5525 5528 5542 5535 5535 5546 5550 5536 5550 5538 5546 5550 5529 5536 5550 5548 5545 5546 5544 5528 5521 5512 5503 5494 5486 5476 5467 5460 5452 5443
5482 5480 5477 5475 5473 5471 5471 5472 5476 5479 5484 5495 5495 5497 5496 5507 5516 5528 5529 5529 5529 5526 5518 5514 5524 5523 5533 5514 5513 5517 5518 5522 5531 5529 5538 5528 5515 5520 5521 5523 5521 5522 5522 5512 5497 5484 5479 5472 5467 5464 5452 5444 5436 5426
5486 5488 5489 5487 5486 5485 5485 5484 5487 5491 5495 5506 5509 5502 5505 5515 5523 5514 5501 5502 5504 5497 5497 5503 5515 5520 5520 5512 5508 5508 5511 5511 5518 5516 5520 5519 5512 5506 5508 5504 5502 5503 5502 5496 5488 5478 5470 5463 5452 5441 5430 5420 5410 5399
5488 5491 5491 5492 5492 5493 5492 5493 5495 5506 5512 5515 5512 5506 5505 5506 5494 5497 5493 5496 5505 5502 5489 5499 5505 5513 5504 5519 5500 5503 5505 5500 5516 5513 5507 5512 5493 5493 5491 5487 5487 5485 5482 5475 5470 5462 5453 5444 5434 5422 5411 5399 5388 5377
5483 5487 5491 5493 5497 5497 5497 5498 5504 5510 5514 5516 5510 5486 5494 5477 5488 5493 5489 5496 5492 5480 5486 5491 5493 5491 5495 5502 5495 5499 5507 5501 5493 5505 5506 5487 5480 5479 5477 5476 5473 5468 5462 5454 5443 5433 5425 5415 5406 5399 5388 5378 5369 5360
5485 5489 5490 5487 5489 5493 5498 5503 5507 5513 5514 5492 5481 5474 5472 5473 5464 5465 5472 5472 5463 5466 5474 5480 5479 5482 5479 5486 5485 5496 5480 5486 5492 5482 5480 5469 5466 5464 5463 5461 5456 5447 5436 5428 5419 5409 5399 5391 5381 5373 5365 5357 5350 5342
5483 5487 5492 5488 5488 5493 5499 5502 5505 5507 5488 5472 5469 5458 5448 5444 5450 5453 5453 5456 5456 5463 5469 5476 5475 5482 5478 5481 5475 5475 5479 5490 5487 5482 5464 5456 5453 5452 5445 5437 5429 5422 5413 5407 5400 5390 5380 5371 5363 5355 5346 5339 5331 5321
5484 5489 5479 5483 5490 5497 5501 5503 5498 5485 5458 5449 5441 5446 5443 5450 5447 5445 5449 5453 5454 5458 5463 5467 5471 5473 5471 5470 5476 5479 5469 5467 5459 5448 5443 5440 5436 5432 5426 5419 5413 5407 5396 5386 5379 5372 5364 5354 5346 5337 5327 5319 5309 5303
5480 5467 5472 5481 5488 5494 5498 5487 5469 5446 5433 5431 5425 5423 5430 5433 5434 5436 5438 5444 5447 5452 5459 5458 5465 5459 5456 5463 5458 5447 5442 5437 5430 5426 5424 5422 5419 5412 5406 5398 5393 5388 5378 5369 5361 5354 5346 5338 5328 5319 5312 5306 5298 5288
5458 5463 5471 5476 5481 5480 5472 5460 5438 5424 5417 5412 5417 5416 5418 5418 5424 5427 5429 5435 5442 5442 5443 5446 5443 5447 5435 5437 5426 5420 5412 5410 5408 5407 5405 5404 5399 5392 5388 5382 5377 5371 5360 5352 5343 5334 5327 5318 5310 5300 5292 5286 5279 5270
5452 5457 5465 5471 5474 5465 5445 5434 5433 5412 5403 5403 5402 5404 5407 5408 5411 5416 5422 5428 5431 5430 5427 5418 5407 5401 5393 5389 5388 5394 5394 5392 5391 5387 5386 5383 5379 5375 5369 5361 5353 5346 5339 5332 5322 5311 5304 5296 5286 5277 5270 5261 5253 5246
5452 5454 5458 5462 5467 5446 5430 5415 5419 5405 5397 5392 5393 5396 5398 5398 5399 5402 5407 5409 5412 5409 5394 5382 5371 5364 5363 5359 5360 5367 5372 5372 5373 5370 5365 5361 5356 5351 5345 5339 5329 5321 5315 5307 5298 5291 5281 5270 5262 5254 5246 5237 5227 5221
5444 5442 5447 5451 5442 5429 5407 5399 5399 5393 5387 5386 5385 5385 5382 5383 5388 5388 5383 5382 5380 5366 5356 5343 5344 5339 5338 5339 5341 5347 5347 5348 5348 5350 5349 5342 5334 5327 5321 5315 5309 5301 5293 5280 5272 5260 5252 5242 5235 5230 5221 5211 5207 5203
5429 5433 5428 5424 5411 5399 5385 5383 5384 5383 5377 5373 5372 5374 5371 5363 5365 5366 5356 5349 5333 5329 5327 5323 5321 5320 5319 5318 5316 5318 5320 5320 5319 5318 5317 5315 5308 5300 5295 5285 5277 5267 5260 5252 5246 5235 5225 5218 5212 5207 5199 5193 5192 5189
5428 5425 5412 5402 5384 5370 5354 5371 5363 5367 5352 5359 5358 5355 5349 5346 5348 5348 5325 5319 5307 5301 5302 5305 5303 5300 5296 5293 5294 5295 5295 5296 5294 5290 5284 5279 5273 5266 5259 5253 5248 5240 5231 5224 5219 5213 5207 5199 5193 5187 5183 5178 5173 5166
5418 5400 5385 5377 5368 5362 5355 5353 5360 5360 5356 5352 5346 5339 5338 5330 5332 5314 5304 5291 5280 5281 5282 5285 5285 5283 5277 5274 5270 5268 5268 5267 5264 5261 5257 5252 5246 5237 5231 5223 5218 5212 5208 5203 5198 5193 5188 5180 5176 5170 5162 5156 5150 5146
5382 5355 5360 5344 5352 5342 5330 5337 5331 5338 5334 5331 5321 5313 5323 5317 5301 5301 5286 5272 5256 5253 5254 5258 5259 5255 5254 5248 5244 5241 5239 5240 5236 5231 5226 5227 5221 5215 5208 5202 5195 5189 5186 5180 5174 5168 5162 5159 5154 5148 5144 5137 5136 5129
5352 5341 5340 5341 5337 5340 5335 5327 5324 5322 5321 5308 5310 5307 5300 5303 5279 5261 5258 5242 5231 5232 5230 5232 5235 5231 5226 5222 5219 5217 5214 5217 5215 5209 5203 5201 5198 5196 5193 5185 5176 5166 5163 5157 5151 5145 5142 5138 5132 5128 5122 5122 5119 5115
5337 5330 5325 5325 5324 5323 5318 5316 5310 5298 5295 5285 5288 5291 5277 5286 5248 5243 5231 5225 5221 5215 5214 5213 5214 5213 5209 5205 5202 5199 5196 5195 5194 5190 5184 5180 5175 5170 5163 5153 5148 5146 5146 5140 5135 5128 5122 5117 5112 5108 5104 5104 5098 5092
5314 5312 5310 5309 5308 5306 5303 5296 5291 5282 5279 5277 5277 5256 5251 5243 5223 5217 5212 5209 5207 5204 5199 5196 5194 5191 5188 5183 5180 5177 5176 5175 5172 5169 5165 5158 5152 5147 5144 5140 5136 5132 5128 5124 5118 5114 5108 5103 5096 5090 5085 5079 5073 5071
5296 5297 5287 5267 5277 5287 5277 5276 5268 5262 5255 5258 5250 5232 5218 5205 5195 5196 5194 5191 5189 5186 5183 5179 5178 5173 5168 5163 5160 5155 5152 5150 5145 5137 5131 5129 5129 5124 5123 5120 5117 5114 5110 5105 5101 5097 5092 5087 5081 5074 5067 5064 5062 5057
5283 5287 5276 5265 5255 5263 5256 5254 5249 5240 5238 5234 5220 5206 5193 5181 5175 5174 5173 5172 5170 5165 5162 5160 5155 5152 5146 5144 5138 5132 5128 5125 5120 5112 5103 5099 5099 5104 5103 5102 5098 5094 5091 5084 5078 5073 5069 5064 5058 5053 5048 5045 5043 5038
5280 5276 5265 5260 5248 5244 5243 5239 5234 5228 5222 5212 5200 5189 5175 5163 5156 5153 5152 5152 5150 5148 5146 5137 5133 5128 5124 5120 5115 5110 5109 5108 5106 5101 5098 5093 5089 5086 5083 5079 5075 5071 5067 5062 5056 5049 5044 5039 5035 5033 5027 5023 5021 5018
5256 5252 5242 5241 5243 5233 5237 5230 5223 5221 5207 5196 5176 5167 5160 5160 5140 5134 5134 5134 5132 5130 5125 5121 5116 5112 5109 5107 5104 5101 5098 5093 5091 5087 5083 5077 5071 5067 5062 5056 5051 5046 5041 5036 5032 5028 5024 5019 5014 5014 5010 5006 5001 4997
5247 5242 5236 5227 5224 5224 5215 5205 5209 5197 5183 5174 5162 5162 5150 5141 5129 5123 5122 5120 5114 5110 5107 5106 5105 5103 5099 5096 5091 5087 5082 5077 5073 5069 5063 5059 5053 5046 5039 5034 5029 5023 5017 5012 5008 5004 5000 4999 4998 4996 4992 4987 4984 4981